SCP
0 0 0 -0 0 0 0 0 0 0 0 0 0 0 0 0 0 0 0 0 0 0 0 0 0 0 0 0 0 0 -0 -0 -0 -0 -0 -0 0 0 0 0 0 0 0 0
0 0 0 0 0 0 0 0 0 0 0 0 0 0 0 0 0 0 0 0 0 0 0 0 0 0 0 0 0 0 -0 -0 -0 -0 -0 -0 0 0 0 0 0 0 0 0
0 0 0 0 0 0 0 0 0 0 0 0 0 0 0 0 0 0 0 0 0 0 0 0 0 0 0 0 -0 0 0 0 0 0 0 -0 -0 -0 0 0 0 0 0 0
0 0 0 0 0 0 0 0 0 0 0 0 0 0 0 0 0 0 0 0 0 0 0 0 0 0 0 0 0 0 0 0 -0 0 0 0 0 0 0 0 0 0 0 0
0 0 0 0 0 0 0 0 0 0 0 0 0 0 0 0 0 0 0 0 0 0 0 0 0 0 0 0 0 0 0 0 0 -0 0 0 0 -0 -0 0 0 1 0 0
0 0 0 0 0 0 0 0 0 0 0 0 0 0 0 0 0 0 0 0 0 0 0 0 0 0 0 0 0 0 0 0 -0 -0 0 0 0 -0 -0 -0 0 0 0 0
0 0 0 0 0 0 0 0 0 0 0 0 0 0 0 0 0 0 0 0 0 0 0 0 0 0 0 0 0 0 0 0 -0 -0 -0 0 0 -0 -1 0 0 0 0 0
0 0 0 0 0 0 0 0 0 0 0 0 0 0 0 0 0 0 0 0 0 0 0 0 0 0 0 0 -0 -0 -0 -0 -0 -0 -0 -0 -0 0 -0 0 -0 -0 -0 0
0 0 0 0 0 0 0 0 0 0 0 0 0 0 0 0 0 0 0 0 0 0 0 0 0 0 0 0 0 -0 -0 -0 -0 -0 -0 -0 -0 0 0 0 -0 -0 -0 0
0 0 0 0 0 0 0 0 0 0 0 0 0 0 0 0 0 0 0 0 0 0 0 0 0 0 0 0 0 0 0 0 0 0 -0 -0 -0 0 0 0 0 0 -0 -0
0 0 0 0 0 0 0 0 0 0 0 0 0 0 0 0 0 0 0 0 0 0 0 0 0 0 0 0 0 0 0 0 0 0 0 0 0 0 0 0 0 0 -0 -0
0 0 0 0 0 0 0 0 0 0 0 0 0 0 0 0 0 0 0 0 0 0 0 0 0 0 0 0 0 0 0 0 0 0 0 0 0 0 0 0 0 0 0 -0
0 0 0 0 0 0 0 0 0 0 0 0 0 0 0 0 0 0 0 0 0 0 0 0 0 0 0 0 0 0 0 0 0 0 0 0 0 0 0 0 -0 0 0 0
0 0 0 0 0 0 0 0 0 0 0 0 0 0 0 0 0 0 0 0 0 0 0 0 0 0 0 0 0 0 0 0 0 0 0 0 0 0 0 0 -0 0 0 0
0 0 0 0 0 0 0 0 0 0 0 0 0 0 0 0 0 0 0 0 0 0 0 0 0 0 0 0 0 0 0 0 0 0 0 0 0 0 0 0 -0 0 0 0
0 0 0 0 0 0 0 0 0 0 0 0 0 0 0 0 0 0 0 0 0 0 0 0 0 0 0 0 0 0 0 0 0 0 0 0 0 0 0 0 -0 0 0 0
0 0 0 0 0 0 0 0 0 0 0 0 0 0 0 0 0 0 0 0 0 0 0 0 0 0 0 0 0 0 0 0 0 0 0 0 0 0 0 0 0 0 0 0
0 0 0 0 0 0 0 0 0 0 0 0 0 0 0 0 0 0 0 0 0 0 0 0 0 0 0 0 0 0 0 0 0 0 0 0 0 0 0 0 0 0 0 0
0 0 0 0 0 0 0 0 0 0 0 0 0 0 0 0 0 0 0 0 0 0 0 0 0 0 0 0 0 0 0 0 0 0 0 0 0 0 0 0 0 0 0 0
0 0 0 0 0 0 0 0 0 0 0 0 0 0 0 0 0 0 0 0 0 0 0 0 0 0 0 0 0 0 0 0 0 0 0 0 0 0 0 0 0 0 0 0
0 0 0 0 0 0 0 0 0 0 0 0 0 0 0 0 0 0 0 0 0 0 -0 0 0 0 0 0 -0 0 0 0 0 0 0 0 0 0 0 0 0 0 0 0
0 0 0 0 0 0 0 0 0 0 0 0 0 0 0 0 0 0 0 0 0 0 -0 0 0 0 0 0 0 0 0 0 0 0 0 0 0 0 0 0 0 0 0 0
0 0 0 0 0 0 0 0 0 0 0 0 0 0 0 0 0 0 0 0 0 0 0 0 0 0 -0 0 0 0 0 0 0 0 0 0 0 0 0 0 0 0 0 0
0 0 0 0 0 0 0 0 0 0 0 0 0 0 0 0 0 0 0 0 0 0 0 0 0 0 -0 0 -0 -0 -0 -0 0 -0 0 0 0 0 0 0 0 0 0 0
0 0 0 -0 -0 -0 -0 -0 -0 -0 0 0 0 0 0 0 0 0 0 0 0 0 0 0 0 0 0 0 0 0 0 0 0 0 0 0 -0 0 0 0 0 0 0 0
0 0 -0 -0 -0 -0 -0 -0 -0 -0 -0 -0 -0 0 0 0 0 0 0 0 0 0 0 0 0 0 0 0 0 0 0 0 0 0 -0 -0 -0 0 0 0 0 0 0 0
0 0 0 -0 -0 -0 -0 -0 -0 -0 -0 -0 -0 -0 0 0 0 0 0 0 0 0 0 0 0 0 0 0 0 0 0 0 0 0 0 0 0 0 0 0 0 0 0 0
Wind_Speed_500mb
9 11 6 7 8 15 9 11 10 10 16 7 15 15 21 8 13 20 33 26 18 18 19 9 7 19 37 29 25 30 39 45 46 37 40 42 40 37 36 39 41 47 51 47
5 8 7 4 11 7 7 5 5 6 3 4 8 13 14 25 20 18 17 23 20 19 19 14 9 10 14 19 23 28 37 40 38 43 44 45 45 44 43 43 41 41 46 51
8 8 9 8 5 2 8 7 1 4 6 2 10 22 23 32 27 27 23 17 18 18 20 22 20 16 16 21 28 28 32 29 32 38 45 48 46 46 47 46 42 46 50 49
7 5 2 10 6 25 22 12 13 10 11 8 15 20 16 14 26 27 22 16 14 13 14 16 19 21 24 28 31 22 20 28 37 37 41 43 47 54 55 51 47 45 48 47
7 7 8 7 5 1 8 5 10 5 8 16 18 14 15 20 20 19 14 8 9 16 18 18 24 27 30 33 31 28 22 26 32 41 35 43 35 48 59 67 60 49 48 48
6 8 13 13 3 4 18 0 9 16 10 13 8 6 7 8 6 7 9 18 14 18 21 27 28 30 31 31 34 36 37 38 45 41 40 35 42 62 85 67 60 59 50 47
7 7 9 11 7 13 6 12 21 35 28 23 4 11 2 10 11 10 15 17 16 18 20 22 23 23 27 32 35 38 42 48 52 46 38 33 30 35 42 37 26 35 58 50
4 4 6 8 4 4 11 37 35 32 31 31 20 13 11 10 8 12 18 23 29 35 34 33 32 30 31 34 37 44 49 52 54 53 47 44 39 29 29 14 22 50 63 64
9 8 8 7 17 33 33 40 27 26 19 18 18 14 10 12 12 13 12 13 16 20 27 33 37 40 42 42 44 46 48 51 53 50 46 48 40 21 20 23 10 10 22 34
6 7 9 26 29 29 23 21 14 9 7 3 4 11 16 13 11 14 17 21 22 26 32 37 39 40 43 41 40 43 48 49 51 53 50 45 42 23 17 20 15 19 25 42
3 4 11 14 19 17 15 12 7 2 6 3 4 10 18 19 19 19 22 26 30 34 38 40 41 41 43 45 46 48 50 54 55 54 59 52 41 33 25 22 18 27 35 32
11 25 11 18 14 11 11 10 11 14 14 7 8 12 15 17 21 25 24 23 26 31 39 44 49 52 52 52 56 62 66 70 74 66 49 46 43 36 27 36 31 27 35 52
12 25 15 25 22 18 15 12 7 6 6 12 21 24 22 15 17 23 33 41 48 56 63 66 67 65 58 55 62 67 70 69 64 54 44 39 39 40 37 41 43 37 36 49
28 26 19 25 14 10 9 6 8 10 14 18 20 18 22 30 39 46 51 55 60 64 65 61 59 61 56 69 69 64 63 60 53 49 41 39 45 46 43 48 55 45 40 42
27 20 13 17 16 14 14 13 14 18 22 25 27 30 36 43 49 53 57 60 59 62 65 63 64 71 71 68 63 58 53 51 48 50 52 51 44 42 44 51 52 49 45 44
27 23 20 20 15 11 12 15 22 28 29 29 32 40 48 50 51 57 61 67 67 71 71 70 72 70 61 61 58 49 48 48 49 53 46 44 42 43 47 51 56 48 46 47
33 22 16 12 10 11 15 23 25 24 25 33 45 50 47 48 55 64 66 67 65 68 73 66 65 59 54 52 48 47 46 47 47 44 43 38 38 44 47 52 54 51 51 43
16 12 5 5 12 19 21 21 23 31 40 45 45 47 54 60 67 72 74 60 59 65 59 46 39 38 42 43 42 45 47 49 47 42 41 44 40 38 39 39 32 45 49 43
8 3 6 6 8 14 21 29 35 37 40 46 53 58 59 62 64 58 44 43 52 59 51 43 40 38 41 40 39 42 44 45 48 47 41 38 39 36 33 31 38 31 46 48
5 8 12 15 21 28 32 37 41 47 51 55 55 49 51 49 46 44 47 48 45 49 46 47 49 45 44 44 44 44 45 45 45 46 45 42 39 42 43 40 37 33 37 37
16 22 22 22 26 31 37 43 49 53 54 52 40 42 46 47 44 45 49 45 42 48 52 51 47 49 49 47 46 45 41 39 41 42 42 43 39 42 44 42 39 35 35 42
24 24 23 28 35 38 40 42 43 44 46 41 38 43 41 45 49 48 41 39 41 48 53 49 51 55 58 54 47 44 38 36 37 38 38 38 35 30 34 39 37 32 34 42
19 21 26 31 35 36 34 33 33 35 37 42 42 36 41 47 45 45 44 44 48 48 48 46 50 56 58 51 46 42 39 40 41 40 39 37 37 37 34 38 38 34 38 39
16 21 28 30 29 31 36 38 37 36 38 34 29 33 38 41 41 34 41 43 43 44 44 45 49 51 50 45 43 37 29 27 27 33 33 33 38 39 37 41 41 36 36 44
16 19 19 27 34 42 40 40 40 42 40 36 34 34 32 30 32 37 35 35 34 36 39 41 44 45 38 35 40 31 23 25 22 26 23 25 28 26 30 28 28 28 30 28
10 9 17 24 32 36 39 43 46 48 50 51 48 46 42 39 36 35 34 34 34 37 40 43 41 39 34 29 30 19 14 12 11 11 17 23 30 25 28 25 27 28 32 37
2 8 16 25 31 35 38 44 46 49 53 55 56 55 53 52 52 50 45 41 40 40 40 36 31 29 26 24 19 16 14 13 11 10 9 12 20 22 26 35 30 26 23 27
Wind_Direction_500mb
211 231 233 246 299 328 196 214 175 295 197 261 206 173 203 135 119 79 79 76 60 46 45 25 322 279 259 259 256 262 257 255 253 257 250 247 249 247 245 242 243 237 236 239
276 280 8 307 326 24 38 88 67 125 300 277 126 126 111 129 135 108 86 79 66 54 57 34 4 288 284 290 292 268 256 248 259 259 258 261 259 251 244 243 243 245 245 246
257 323 351 15 357 31 85 14 220 251 245 132 78 80 99 127 127 111 96 81 64 60 52 58 47 21 354 313 315 298 275 274 284 280 272 263 265 261 252 246 244 245 248 250
210 25 353 244 128 103 96 31 353 81 94 81 103 100 82 118 129 118 100 82 62 52 27 12 14 4 357 340 333 315 293 275 285 283 280 276 281 276 271 263 255 252 255 254
154 176 277 161 222 95 126 349 336 338 104 138 129 119 82 106 106 96 86 59 8 354 349 345 337 338 336 333 335 336 335 341 353 352 324 281 294 296 296 280 267 258 254 253
137 153 208 236 226 130 122 278 284 171 137 156 120 139 257 135 81 2 321 314 332 344 337 331 335 334 328 331 336 337 343 354 353 349 348 346 298 302 289 302 277 274 271 271
160 198 281 251 299 133 191 222 165 165 169 171 197 224 192 170 233 256 258 267 277 288 300 305 310 312 314 320 327 329 328 331 334 342 342 332 333 329 351 324 62 41 356 4
92 122 243 8 329 186 173 152 154 159 171 189 208 201 194 206 248 269 276 274 278 281 283 287 296 297 302 309 317 317 319 322 326 329 334 330 333 332 337 292 337 350 317 309
170 213 278 25 113 127 150 151 154 147 155 181 185 191 215 240 253 219 233 255 277 287 294 300 303 303 300 302 304 310 314 318 322 326 334 337 334 332 320 307 227 71 117 165
77 322 32 99 112 125 130 132 131 113 93 137 250 268 269 255 231 266 286 295 298 299 301 301 303 299 298 300 299 298 301 306 310 315 320 327 334 324 301 305 271 224 185 185
24 20 113 122 122 122 123 132 151 150 132 126 283 285 288 290 291 295 295 291 289 287 288 290 288 288 288 290 291 290 291 294 298 301 305 307 310 323 271 288 279 243 226 213
209 195 182 177 167 185 195 214 238 250 249 302 337 329 314 298 290 288 285 288 295 298 298 296 298 295 291 288 287 288 289 289 292 296 291 287 290 301 281 262 268 253 238 239
164 171 185 168 165 175 183 183 209 272 289 280 289 305 306 292 285 295 302 305 305 305 303 301 300 297 293 293 294 290 290 289 291 288 285 276 274 283 289 253 258 264 250 248
162 161 163 183 199 184 180 222 268 282 295 309 310 306 299 301 303 305 306 308 309 306 301 297 293 290 286 299 298 287 287 284 284 280 275 274 269 269 273 264 262 262 251 254
184 203 226 206 204 222 257 275 287 295 301 304 298 297 301 305 307 308 309 310 308 303 299 296 290 291 294 297 298 292 284 277 279 280 270 271 268 262 267 257 261 263 257 253
195 205 199 196 202 214 240 267 290 302 301 292 297 304 308 309 308 310 310 312 310 306 301 297 292 291 294 298 297 290 282 272 274 282 273 273 260 258 255 261 258 258 260 257
178 163 175 202 233 270 285 295 294 294 295 300 304 306 303 303 304 307 309 312 313 310 302 303 297 294 293 293 291 286 281 276 281 277 263 260 267 255 252 267 252 254 255 256
159 149 171 273 293 292 291 292 295 299 304 306 303 299 300 303 306 308 309 308 315 316 322 321 313 303 294 293 294 291 282 275 274 276 268 259 263 253 259 249 254 257 249 252
94 40 330 310 292 293 299 301 306 310 309 307 304 303 305 307 311 311 314 316 315 321 327 328 319 307 299 297 295 294 287 281 271 268 268 266 260 252 244 251 262 267 246 254
54 350 332 317 304 306 308 307 308 310 313 312 310 310 313 317 315 316 320 314 318 322 331 331 325 319 308 299 297 292 292 280 269 268 263 261 259 252 250 254 247 254 243 240
0 348 336 321 318 315 314 314 315 315 316 319 318 319 314 310 309 305 310 314 315 309 312 315 318 319 315 303 291 288 287 283 274 265 267 263 258 258 258 249 238 248 249 237
348 346 342 331 322 320 321 321 323 322 321 322 316 312 311 305 305 307 307 310 303 307 312 314 314 319 321 316 311 293 281 278 279 268 260 254 248 254 253 241 233 236 246 234
351 345 340 335 335 334 335 334 334 332 324 320 320 316 308 309 308 313 312 309 311 311 312 312 314 314 318 317 314 305 282 278 271 264 253 248 252 256 261 237 235 241 232 231
342 343 348 353 357 360 0 0 1 1 348 336 330 322 322 319 315 316 312 316 316 314 315 315 313 314 319 321 319 309 290 288 273 253 255 252 260 264 272 239 226 222 229 232
342 353 22 21 30 30 24 21 20 21 16 14 5 355 350 342 332 333 335 334 332 325 321 320 322 327 330 326 329 316 285 290 299 257 246 252 255 249 238 230 235 233 228 219
344 23 29 44 43 39 36 33 34 33 32 33 32 26 21 14 7 359 352 348 343 337 332 332 338 342 341 338 341 347 307 290 290 274 269 240 240 247 238 237 241 237 232 228
52 62 83 65 58 52 48 46 46 42 40 38 36 32 30 30 30 27 24 20 16 9 1 355 354 353 352 343 347 342 343 328 316 283 270 259 251 257 241 237 241 234 218 210
Wind_Speed_850mb
9 11 6 7 8 15 9 11 10 10 16 7 15 15 21 8 13 20 33 26 18 18 19 9 7 19 37 29 25 30 39 45 46 37 40 42 40 37 36 39 41 47 51 47
5 8 7 4 11 7 7 5 5 6 3 4 8 13 14 25 20 18 17 23 20 19 19 14 9 10 14 19 23 28 37 40 38 43 44 45 45 44 43 43 41 41 46 51
8 8 9 8 5 2 8 7 1 4 6 2 10 22 23 32 27 27 23 17 18 18 20 22 20 16 16 21 28 28 32 29 32 38 45 48 46 46 47 46 42 46 50 49
7 5 2 10 6 25 22 12 13 10 11 8 15 20 16 14 26 27 22 16 14 13 14 16 19 21 24 28 31 22 20 28 37 37 41 43 47 54 55 51 47 45 48 47
7 7 8 7 5 1 8 5 10 5 8 16 18 14 15 20 20 19 14 8 9 16 18 18 24 27 30 33 31 28 22 26 32 41 35 43 35 48 59 67 60 49 48 48
6 8 13 13 3 4 18 0 9 16 10 13 8 6 7 8 6 7 9 18 14 18 21 27 28 30 31 31 34 36 37 38 45 41 40 35 42 62 85 67 60 59 50 47
7 7 9 11 7 13 6 12 21 35 28 23 4 11 2 10 11 10 15 17 16 18 20 22 23 23 27 32 35 38 42 48 52 46 38 33 30 35 42 37 26 35 58 50
4 4 6 8 4 4 11 37 35 32 31 31 20 13 11 10 8 12 18 23 29 35 34 33 32 30 31 34 37 44 49 52 54 53 47 44 39 29 29 14 22 50 63 64
9 8 8 7 17 33 33 40 27 26 19 18 18 14 10 12 12 13 12 13 16 20 27 33 37 40 42 42 44 46 48 51 53 50 46 48 40 21 20 23 10 10 22 34
6 7 9 26 29 29 23 21 14 9 7 3 4 11 16 13 11 14 17 21 22 26 32 37 39 40 43 41 40 43 48 49 51 53 50 45 42 23 17 20 15 19 25 42
3 4 11 14 19 17 15 12 7 2 6 3 4 10 18 19 19 19 22 26 30 34 38 40 41 41 43 45 46 48 50 54 55 54 59 52 41 33 25 22 18 27 35 32
11 25 11 18 14 11 11 10 11 14 14 7 8 12 15 17 21 25 24 23 26 31 39 44 49 52 52 52 56 62 66 70 74 66 49 46 43 36 27 36 31 27 35 52
12 25 15 25 22 18 15 12 7 6 6 12 21 24 22 15 17 23 33 41 48 56 63 66 67 65 58 55 62 67 70 69 64 54 44 39 39 40 37 41 43 37 36 49
28 26 19 25 14 10 9 6 8 10 14 18 20 18 22 30 39 46 51 55 60 64 65 61 59 61 56 69 69 64 63 60 53 49 41 39 45 46 43 48 55 45 40 42
27 20 13 17 16 14 14 13 14 18 22 25 27 30 36 43 49 53 57 60 59 62 65 63 64 71 71 68 63 58 53 51 48 50 52 51 44 42 44 51 52 49 45 44
27 23 20 20 15 11 12 15 22 28 29 29 32 40 48 50 51 57 61 67 67 71 71 70 72 70 61 61 58 49 48 48 49 53 46 44 42 43 47 51 56 48 46 47
33 22 16 12 10 11 15 23 25 24 25 33 45 50 47 48 55 64 66 67 65 68 73 66 65 59 54 52 48 47 46 47 47 44 43 38 38 44 47 52 54 51 51 43
16 12 5 5 12 19 21 21 23 31 40 45 45 47 54 60 67 72 74 60 59 65 59 46 39 38 42 43 42 45 47 49 47 42 41 44 40 38 39 39 32 45 49 43
8 3 6 6 8 14 21 29 35 37 40 46 53 58 59 62 64 58 44 43 52 59 51 43 40 38 41 40 39 42 44 45 48 47 41 38 39 36 33 31 38 31 46 48
5 8 12 15 21 28 32 37 41 47 51 55 55 49 51 49 46 44 47 48 45 49 46 47 49 45 44 44 44 44 45 45 45 46 45 42 39 42 43 40 37 33 37 37
16 22 22 22 26 31 37 43 49 53 54 52 40 42 46 47 44 45 49 45 42 48 52 51 47 49 49 47 46 45 41 39 41 42 42 43 39 42 44 42 39 35 35 42
24 24 23 28 35 38 40 42 43 44 46 41 38 43 41 45 49 48 41 39 41 48 53 49 51 55 58 54 47 44 38 36 37 38 38 38 35 30 34 39 37 32 34 42
19 21 26 31 35 36 34 33 33 35 37 42 42 36 41 47 45 45 44 44 48 48 48 46 50 56 58 51 46 42 39 40 41 40 39 37 37 37 34 38 38 34 38 39
16 21 28 30 29 31 36 38 37 36 38 34 29 33 38 41 41 34 41 43 43 44 44 45 49 51 50 45 43 37 29 27 27 33 33 33 38 39 37 41 41 36 36 44
16 19 19 27 34 42 40 40 40 42 40 36 34 34 32 30 32 37 35 35 34 36 39 41 44 45 38 35 40 31 23 25 22 26 23 25 28 26 30 28 28 28 30 28
10 9 17 24 32 36 39 43 46 48 50 51 48 46 42 39 36 35 34 34 34 37 40 43 41 39 34 29 30 19 14 12 11 11 17 23 30 25 28 25 27 28 32 37
2 8 16 25 31 35 38 44 46 49 53 55 56 55 53 52 52 50 45 41 40 40 40 36 31 29 26 24 19 16 14 13 11 10 9 12 20 22 26 35 30 26 23 27
Wind_Direction_850mb
211 231 233 246 299 328 196 214 175 295 197 261 206 173 203 135 119 79 79 76 60 46 45 25 322 279 259 259 256 262 257 255 253 257 250 247 249 247 245 242 243 237 236 239
276 280 8 307 326 24 38 88 67 125 300 277 126 126 111 129 135 108 86 79 66 54 57 34 4 288 284 290 292 268 256 248 259 259 258 261 259 251 244 243 243 245 245 246
257 323 351 15 357 31 85 14 220 251 245 132 78 80 99 127 127 111 96 81 64 60 52 58 47 21 354 313 315 298 275 274 284 280 272 263 265 261 252 246 244 245 248 250
210 25 353 244 128 103 96 31 353 81 94 81 103 100 82 118 129 118 100 82 62 52 27 12 14 4 357 340 333 315 293 275 285 283 280 276 281 276 271 263 255 252 255 254
154 176 277 161 222 95 126 349 336 338 104 138 129 119 82 106 106 96 86 59 8 354 349 345 337 338 336 333 335 336 335 341 353 352 324 281 294 296 296 280 267 258 254 253
137 153 208 236 226 130 122 278 284 171 137 156 120 139 257 135 81 2 321 314 332 344 337 331 335 334 328 331 336 337 343 354 353 349 348 346 298 302 289 302 277 274 271 271
160 198 281 251 299 133 191 222 165 165 169 171 197 224 192 170 233 256 258 267 277 288 300 305 310 312 314 320 327 329 328 331 334 342 342 332 333 329 351 324 62 41 356 4
92 122 243 8 329 186 173 152 154 159 171 189 208 201 194 206 248 269 276 274 278 281 283 287 296 297 302 309 317 317 319 322 326 329 334 330 333 332 337 292 337 350 317 309
170 213 278 25 113 127 150 151 154 147 155 181 185 191 215 240 253 219 233 255 277 287 294 300 303 303 300 302 304 310 314 318 322 326 334 337 334 332 320 307 227 71 117 165
77 322 32 99 112 125 130 132 131 113 93 137 250 268 269 255 231 266 286 295 298 299 301 301 303 299 298 300 299 298 301 306 310 315 320 327 334 324 301 305 271 224 185 185
24 20 113 122 122 122 123 132 151 150 132 126 283 285 288 290 291 295 295 291 289 287 288 290 288 288 288 290 291 290 291 294 298 301 305 307 310 323 271 288 279 243 226 213
209 195 182 177 167 185 195 214 238 250 249 302 337 329 314 298 290 288 285 288 295 298 298 296 298 295 291 288 287 288 289 289 292 296 291 287 290 301 281 262 268 253 238 239
164 171 185 168 165 175 183 183 209 272 289 280 289 305 306 292 285 295 302 305 305 305 303 301 300 297 293 293 294 290 290 289 291 288 285 276 274 283 289 253 258 264 250 248
162 161 163 183 199 184 180 222 268 282 295 309 310 306 299 301 303 305 306 308 309 306 301 297 293 290 286 299 298 287 287 284 284 280 275 274 269 269 273 264 262 262 251 254
184 203 226 206 204 222 257 275 287 295 301 304 298 297 301 305 307 308 309 310 308 303 299 296 290 291 294 297 298 292 284 277 279 280 270 271 268 262 267 257 261 263 257 253
195 205 199 196 202 214 240 267 290 302 301 292 297 304 308 309 308 310 310 312 310 306 301 297 292 291 294 298 297 290 282 272 274 282 273 273 260 258 255 261 258 258 260 257
178 163 175 202 233 270 285 295 294 294 295 300 304 306 303 303 304 307 309 312 313 310 302 303 297 294 293 293 291 286 281 276 281 277 263 260 267 255 252 267 252 254 255 256
159 149 171 273 293 292 291 292 295 299 304 306 303 299 300 303 306 308 309 308 315 316 322 321 313 303 294 293 294 291 282 275 274 276 268 259 263 253 259 249 254 257 249 252
94 40 330 310 292 293 299 301 306 310 309 307 304 303 305 307 311 311 314 316 315 321 327 328 319 307 299 297 295 294 287 281 271 268 268 266 260 252 244 251 262 267 246 254
54 350 332 317 304 306 308 307 308 310 313 312 310 310 313 317 315 316 320 314 318 322 331 331 325 319 308 299 297 292 292 280 269 268 263 261 259 252 250 254 247 254 243 240
0 348 336 321 318 315 314 314 315 315 316 319 318 319 314 310 309 305 310 314 315 309 312 315 318 319 315 303 291 288 287 283 274 265 267 263 258 258 258 249 238 248 249 237
348 346 342 331 322 320 321 321 323 322 321 322 316 312 311 305 305 307 307 310 303 307 312 314 314 319 321 316 311 293 281 278 279 268 260 254 248 254 253 241 233 236 246 234
351 345 340 335 335 334 335 334 334 332 324 320 320 316 308 309 308 313 312 309 311 311 312 312 314 314 318 317 314 305 282 278 271 264 253 248 252 256 261 237 235 241 232 231
342 343 348 353 357 360 0 0 1 1 348 336 330 322 322 319 315 316 312 316 316 314 315 315 313 314 319 321 319 309 290 288 273 253 255 252 260 264 272 239 226 222 229 232
342 353 22 21 30 30 24 21 20 21 16 14 5 355 350 342 332 333 335 334 332 325 321 320 322 327 330 326 329 316 285 290 299 257 246 252 255 249 238 230 235 233 228 219
344 23 29 44 43 39 36 33 34 33 32 33 32 26 21 14 7 359 352 348 343 337 332 332 338 342 341 338 341 347 307 290 290 274 269 240 240 247 238 237 241 237 232 228
52 62 83 65 58 52 48 46 46 42 40 38 36 32 30 30 30 27 24 20 16 9 1 355 354 353 352 343 347 342 343 328 316 283 270 259 251 257 241 237 241 234 218 210